CW2285 Weather Reports


Display with metric or nautical units.
time (UTC)temp
F
wind
direction
speed
MPH
gust
MPH
rain 1hr
in
rain 24hr
in
rain mn
in
humidity
%
barometer
mb
20210730095504 93 238 2.0 3.0 0.00 0.00 0.00 25 1007.5
20210730095004 92 238 3.0 3.0 0.00 0.00 0.00 25 1007.6
20210730094504 93 238 2.0 3.0 0.00 0.00 0.00 25 1007.7
20210730094004 93 238 1.0 3.0 0.00 0.00 0.00 25 1007.7
20210730093504 93 238 1.0 5.0 0.00 0.00 0.00 24 1007.7
20210730093004 92 238 1.0 2.0 0.00 0.00 0.00 25 1007.7
20210730092504 92 238 3.0 6.0 0.00 0.00 0.00 25 1007.7
20210730092004 91 215 2.0 5.0 0.00 0.00 0.00 26 1007.7
20210730091504 91 331 4.0 10.0 0.00 0.00 0.00 25 1007.6
20210730091004 91 300 2.0 5.0 0.00 0.00 0.00 26 1007.6
20210730090504 91 299 3.0 6.0 0.00 0.00 0.00 26 1007.6
20210730090004 92 342 3.0 7.0 0.00 0.00 0.00 25 1007.6
20210730085504 92 326 4.0 7.0 0.00 0.00 0.00 25 1007.5
20210730085004 93 301 3.0 7.0 0.00 0.00 0.00 25 1007.6
20210730084504 93 310 4.0 9.0 0.00 0.00 0.00 25 1007.5
20210730084004 93 298 5.0 8.0 0.00 0.00 0.00 24 1007.5
20210730083504 93 285 3.0 6.0 0.00 0.00 0.00 24 1007.5
20210730083004 94 254 3.0 6.0 0.00 0.00 0.00 23 1007.5
20210730082504 94 299 6.0 10.0 0.00 0.00 0.00 23 1007.5
20210730082004 93 299 3.0 8.0 0.00 0.00 0.00 24 1007.6
20210730081504 93 305 3.0 8.0 0.00 0.00 0.00 24 1007.7
20210730081004 93 323 5.0 8.0 0.00 0.00 0.00 24 1007.7
20210730080504 93 320 4.0 12.0 0.00 0.00 0.00 24 1007.7
20210730080004 92 330 4.0 9.0 0.00 0.00 0.00 24 1007.7
20210730075504 93 333 5.0 9.0 0.00 0.00 0.00 24 1007.7
20210730075004 93 329 3.0 7.0 0.00 0.00 0.00 24 1007.7
20210730074504 94 245 3.0 6.0 0.00 0.00 0.00 23 1007.7
20210730074004 95 269 7.0 10.0 0.00 0.00 0.00 23 1007.6
20210730073504 95 257 5.0 8.0 0.00 0.00 0.00 22 1007.5
20210730073004 95 242 5.0 7.0 0.00 0.00 0.00 22 1007.4
20210730072504 95 249 2.0 3.0 0.00 0.00 0.00 23 1007.4
20210730072005 95 249 1.0 2.0 0.00 0.00 0.00 22 1007.4
20210730071504 95 249 3.0 3.0 0.00 0.00 0.00 22 1007.3
20210730071003 95 249 1.0 3.0 0.00 0.00 0.00 22 1007.2
20210730070504 96 249 2.0 3.0 0.00 0.00 0.00 21 1007.1
20210730070004 96 249 4.0 7.0 0.00 0.00 0.00 21 1007.1
20210730065504 96 268 5.0 10.0 0.00 0.00 0.00 20 1007.1
20210730065004 96 248 5.0 9.0 0.00 0.00 0.00 21 1007.0
20210730064504 95 252 6.0 13.0 0.00 0.00 0.00 21 1006.9
20210730064004 95 287 6.0 12.0 0.00 0.00 0.00 21 1006.8
20210730063504 95 279 5.0 15.0 0.00 0.00 0.00 21 1006.8
20210730063005 95 285 10.0 15.0 0.00 0.00 0.00 21 1006.7
20210730062504 96 289 8.0 16.0 0.00 0.00 0.00 21 1006.8
20210730062005 96 289 9.0 17.0 0.00 0.00 0.00 21 1007.0
20210730061504 96 236 7.0 14.0 0.00 0.00 0.00 21 1007.2
20210730061004 96 288 9.0 17.0 0.00 0.00 0.00 21 1006.3
20210730060504 96 304 10.0 18.0 0.00 0.00 0.00 21 1006.1
20210730060004 96 302 10.0 20.0 0.00 0.00 0.00 21 1006.0
20210730055504 96 310 9.0 18.0 0.00 0.00 0.00 21 1005.9
20210730055004 96 295 10.0 20.0 0.00 0.00 0.00 21 1005.9
20210730054503 96 309 9.0 18.0 0.00 0.00 0.00 21 1005.7
20210730054005 96 301 12.0 20.0 0.00 0.00 0.00 21 1005.7
20210730053504 96 295 12.0 20.0 0.00 0.00 0.00 21 1005.7
20210730053004 96 302 10.0 20.0 0.00 0.00 0.00 21 1005.7
20210730052504 96 300 10.0 17.0 0.00 0.00 0.00 21 1005.7
20210730052004 96 293 10.0 20.0 0.00 0.00 0.00 21 1005.6
20210730051504 96 302 7.0 20.0 0.00 0.00 0.00 21 1005.6
20210730051004 96 301 10.0 20.0 0.00 0.00 0.00 20 1005.6
20210730050504 97 302 12.0 20.0 0.00 0.00 0.00 20 1005.6
20210730050004 97 306 13.0 23.0 0.00 0.00 0.00 20 1005.6
20210730045504 96 301 10.0 17.0 0.00 0.00 0.00 21 1005.5
20210730045005 97 313 10.0 18.0 0.00 0.00 0.00 21 1005.6
20210730044504 97 306 7.0 17.0 0.00 0.00 0.00 21 1005.6
20210730044004 97 317 8.0 15.0 0.00 0.00 0.00 21 1005.6
20210730043504 97 317 7.0 21.0 0.00 0.00 0.00 20 1005.6
20210730043004 97 297 10.0 18.0 0.00 0.00 0.00 20 1005.4
20210730042504 97 312 9.0 20.0 0.00 0.00 0.00 20 1005.3
20210730042004 98 318 9.0 17.0 0.00 0.00 0.00 20 1005.2
20210730041504 98 308 9.0 15.0 0.00 0.00 0.00 20 1005.1
20210730041003 98 312 10.0 20.0 0.00 0.00 0.00 19 1005.1
20210730040504 98 312 7.0 16.0 0.00 0.00 0.00 19 1005.1
20210730040004 98 304 8.0 25.0 0.00 0.00 0.00 19 1005.1
20210730035505 99 327 8.0 14.0 0.00 0.00 0.00 19 1005.1
20210730035005 99 318 9.0 15.0 0.00 0.00 0.00 19 1005.0
20210730034504 99 306 7.0 16.0 0.00 0.00 0.00 19 1005.0
20210730034004 99 301 12.0 20.0 0.00 0.00 0.00 19 1004.8
20210730033503 99 309 7.0 20.0 0.00 0.00 0.00 19 1004.8
20210730033004 100 301 13.0 20.0 0.00 0.00 0.00 19 1004.7
20210730032503 100 296 11.0 20.0 0.00 0.00 0.00 19 1004.6
20210730032004 100 292 12.0 20.0 0.00 0.00 0.00 19 1004.5
20210730031504 100 291 12.0 25.0 0.00 0.00 0.00 20 1004.5
20210730031005 101 300 14.0 21.0 0.00 0.00 0.00 19 1004.5
20210730030504 101 286 10.0 16.0 0.00 0.00 0.00 20 1004.4
20210730030004 101 311 13.0 24.0 0.00 0.00 0.00 20 1004.2
20210730025504 101 298 9.0 20.0 0.00 0.00 0.00 20 1004.1
20210730025004 101 283 9.0 16.0 0.00 0.00 0.00 20 1004.1
20210730024504 102 297 12.0 21.0 0.00 0.00 0.00 20 1004.1
20210730024004 102 294 10.0 18.0 0.00 0.00 0.00 20 1004.1
20210730023504 102 291 12.0 22.0 0.00 0.00 0.00 20 1004.0
20210730023004 102 292 14.0 21.0 0.00 0.00 0.00 20 1004.0
20210730022504 103 295 14.0 23.0 0.00 0.00 0.00 19 1003.9
20210730022004 103 302 13.0 22.0 0.00 0.00 0.00 18 1003.9
20210730021504 104 293 13.0 23.0 0.00 0.00 0.00 19 1003.7
20210730021004 104 291 11.0 21.0 0.00 0.00 0.00 18 1003.7
20210730020504 104 288 14.0 25.0 0.00 0.00 0.00 18 1003.5
20210730020004 104 297 14.0 22.0 0.00 0.00 0.00 18 1003.5
20210730015504 105 294 14.0 25.0 0.00 0.00 0.00 17 1003.5
20210730015004 106 287 13.0 22.0 0.00 0.00 0.00 17 1003.5
20210730014504 106 289 16.0 25.0 0.00 0.00 0.00 17 1003.5
20210730014004 106 295 12.0 23.0 0.00 0.00 0.00 17 1003.5
20210730013504 106 292 14.0 28.0 0.00 0.00 0.00 16 1003.5
20210730013004 107 280 12.0 22.0 0.00 0.00 0.00 16 1003.5
20210730012504 107 300 15.0 26.0 0.00 0.00 0.00 16 1003.5
20210730012004 108 291 12.0 24.0 0.00 0.00 0.00 16 1003.4
20210730011504 108 305 12.0 23.0 0.00 0.00 0.00 16 1003.3
20210730011004 108 287 12.0 22.0 0.00 0.00 0.00 16 1003.2
20210730010504 109 288 11.0 21.0 0.00 0.00 0.00 16 1003.2
20210730010004 109 286 13.0 24.0 0.00 0.00 0.00 15 1003.0
20210730005504 109 295 16.0 23.0 0.00 0.00 0.00 15 1003.0
20210730005004 109 287 12.0 22.0 0.00 0.00 0.00 14 1003.0
20210730004504 109 288 12.0 22.0 0.00 0.00 0.00 14 1003.0
20210730004004 110 278 13.0 21.0 0.00 0.00 0.00 14 1003.0
20210730003504 110 286 9.0 18.0 0.00 0.00 0.00 13 1003.0
20210730003004 110 296 12.0 20.0 0.00 0.00 0.00 13 1003.0
20210730002504 110 302 12.0 20.0 0.00 0.00 0.00 13 1003.0
20210730002004 111 296 13.0 22.0 0.00 0.00 0.00 13 1003.0
20210730001504 111 288 11.0 18.0 0.00 0.00 0.00 13 1003.0
20210730001004 111 288 12.0 23.0 0.00 0.00 0.00 13 1003.0
20210730000504 111 290 12.0 25.0 0.00 0.00 0.00 13 1003.0
20210730000003 111 295 10.0 20.0 0.00 0.00 0.00 13 1003.0
20210729235504 111 276 11.0 20.0 0.00 0.00 0.00 13 1003.0
20210729235004 112 294 16.0 21.0 0.00 0.00 0.00 13 1003.0
20210729234504 112 293 8.0 20.0 0.00 0.00 0.00 13 1003.2
20210729234004 112 288 13.0 22.0 0.00 0.00 0.00 13 1003.1
20210729233503 112 298 9.0 18.0 0.00 0.00 0.00 12 1003.3
20210729233004 112 291 13.0 21.0 0.00 0.00 0.00 13 1003.4
20210729232504 112 318 12.0 21.0 0.00 0.00 0.00 13 1003.4
20210729232004 112 289 9.0 26.0 0.00 0.00 0.00 12 1003.5
20210729231504 112 293 13.0 25.0 0.00 0.00 0.00 12 1003.5
20210729231004 112 282 6.0 22.0 0.00 0.00 0.00 13 1003.6
20210729230504 112 296 9.0 17.0 0.00 0.00 0.00 13 1003.6
20210729230004 112 282 10.0 21.0 0.00 0.00 0.00 13 1003.6
20210729225504 112 313 6.0 13.0 0.00 0.00 0.00 13 1003.7
20210729225004 114 291 12.0 24.0 0.00 0.00 0.00 13 1003.8
20210729224504 114 285 7.0 14.0 0.00 0.00 0.00 13 1003.8
20210729224004 113 291 7.0 13.0 0.00 0.00 0.00 14 1003.9
20210729223504 113 285 9.0 16.0 0.00 0.00 0.00 14 1004.0
20210729223005 112 252 5.0 12.0 0.00 0.00 0.00 13 1004.0
20210729222503 113 300 5.0 12.0 0.00 0.00 0.00 14 1004.1
20210729222004 113 294 5.0 12.0 0.00 0.00 0.00 13 1004.2
20210729221504 113 291 8.0 15.0 0.00 0.00 0.00 13 1004.2
20210729221004 112 0 4.0 12.0 0.00 0.00 0.00 13 1004.3
20210729220504 112 225 5.0 9.0 0.00 0.00 0.00 14 1004.4
20210729220004 112 226 5.0 9.0 0.00 0.00 0.00 15 1004.5
20210729215504 112 251 5.0 9.0 0.00 0.00 0.00 15 1004.6
20210729215004 111 148 4.0 8.0 0.00 0.00 0.00 14 1004.6
20210729214503 111 133 5.0 9.0 0.00 0.00 0.00 15 1004.7
20210729214004 113 152 6.0 10.0 0.00 0.00 0.00 15 1004.9
20210729213504 113 154 3.0 6.0 0.00 0.00 0.00 16 1005.0
20210729213005 111 130 2.0 5.0 0.00 0.00 0.00 16 1005.1
20210729212504 111 100 2.0 5.0 0.00 0.00 0.00 18 1005.1
20210729212004 112 154 3.0 8.0 0.00 0.00 0.00 16 1005.2
20210729211504 111 126 4.0 6.0 0.00 0.00 0.00 17 1005.3
20210729211004 111 121 5.0 9.0 0.00 0.00 0.00 16 1005.5
20210729210503 110 226 3.0 6.0 0.00 0.00 0.00 17 1005.5
20210729210010 110 205 5.0 7.0 0.00 0.00 0.00 17 1005.6
20210729205504 111 228 8.0 10.0 0.00 0.00 0.00 16 1005.6
20210729205004 111 232 8.0 12.0 0.00 0.00 0.00 16 1005.6
20210729204504 110 224 8.0 12.0 0.00 0.00 0.00 17 1005.7
20210729204004 111 167 3.0 6.0 0.00 0.00 0.00 15 1005.7
20210729203504 111 138 3.0 7.0 0.00 0.00 0.00 16 1005.7
20210729203004 111 104 3.0 7.0 0.00 0.00 0.00 16 1005.8
20210729202503 110 102 2.0 5.0 0.00 0.00 0.00 17 1005.9
20210729202004 110 206 3.0 9.0 0.00 0.00 0.00 16 1006.1
20210729201503 110 150 1.0 6.0 0.00 0.00 0.00 17 1006.2
20210729201004 111 104 4.0 8.0 0.00 0.00 0.00 16 1006.2
20210729200504 111 127 6.0 15.0 0.00 0.00 0.00 16 1006.2
20210729200004 111 79 5.0 13.0 0.00 0.00 0.00 17 1006.2
20210729195504 110 120 4.0 9.0 0.00 0.00 0.00 17 1006.2
20210729195004 110 221 5.0 8.0 0.00 0.00 0.00 17 1006.3
20210729194504 110 97 4.0 8.0 0.00 0.00 0.00 18 1006.5
20210729194004 109 233 2.0 5.0 0.00 0.00 0.00 18 1006.6
20210729193504 109 206 5.0 8.0 0.00 0.00 0.00 18 1006.6
20210729193004 109 218 3.0 7.0 0.00 0.00 0.00 18 1006.7
20210729192504 109 179 3.0 8.0 0.00 0.00 0.00 19 1006.7
20210729192004 109 100 5.0 9.0 0.00 0.00 0.00 17 1006.7
20210729191504 109 115 3.0 6.0 0.00 0.00 0.00 18 1006.8
20210729191004 109 168 4.0 7.0 0.00 0.00 0.00 18 1006.9
20210729190504 109 249 3.0 9.0 0.00 0.00 0.00 16 1007.0
20210729190004 109 5 2.0 3.0 0.00 0.00 0.00 18 1007.1
20210729185504 109 126 3.0 5.0 0.00 0.00 0.00 16 1007.2
20210729185005 109 86 4.0 8.0 0.00 0.00 0.00 17 1007.2
20210729184504 108 121 2.0 8.0 0.00 0.00 0.00 17 1007.2
20210729184004 108 123 2.0 7.0 0.00 0.00 0.00 16 1007.2
20210729183504 108 90 3.0 7.0 0.00 0.00 0.00 16 1007.3
20210729183004 108 128 3.0 8.0 0.00 0.00 0.00 16 1007.3
20210729182504 108 214 5.0 7.0 0.00 0.00 0.00 16 1007.4
20210729182003 107 178 2.0 5.0 0.00 0.00 0.00 17 1007.4
20210729181504 108 178 4.0 6.0 0.00 0.00 0.00 17 1007.5
20210729181004 108 200 3.0 5.0 0.00 0.00 0.00 17 1007.6
20210729180504 108 295 4.0 7.0 0.00 0.00 0.00 16 1007.6
20210729180004 107 240 5.0 7.0 0.00 0.00 0.00 16 1007.6
20210729175504 107 316 2.0 5.0 0.00 0.00 0.00 17 1007.6
20210729175004 107 293 4.0 7.0 0.00 0.00 0.00 16 1007.8
20210729174504 106 293 3.0 7.0 0.00 0.00 0.00 16 1007.8
20210729174005 106 218 5.0 8.0 0.00 0.00 0.00 17 1007.8
20210729173504 106 260 5.0 10.0 0.00 0.00 0.00 16 1007.8
20210729173004 106 255 7.0 12.0 0.00 0.00 0.00 16 1007.8
20210729172504 105 256 6.0 10.0 0.00 0.00 0.00 16 1007.8
20210729172004 105 271 5.0 12.0 0.00 0.00 0.00 16 1007.8
20210729171504 104 274 6.0 12.0 0.00 0.00 0.00 17 1007.8
20210729171004 104 264 6.0 10.0 0.00 0.00 0.00 17 1007.8
20210729170504 104 264 6.0 12.0 0.00 0.00 0.00 17 1007.8
20210729170004 104 277 5.0 12.0 0.00 0.00 0.00 17 1007.8
20210729165504 104 252 5.0 12.0 0.00 0.00 0.00 17 1007.9
20210729165004 103 273 7.0 16.0 0.00 0.00 0.00 17 1007.9
20210729164504 103 273 6.0 12.0 0.00 0.00 0.00 17 1007.9
20210729164004 103 266 7.0 15.0 0.00 0.00 0.00 17 1007.9
20210729163504 102 281 9.0 14.0 0.00 0.00 0.00 18 1007.9
20210729163004 101 293 9.0 16.0 0.00 0.00 0.00 19 1007.9
20210729162504 100 273 10.0 16.0 0.00 0.00 0.00 18 1007.9
20210729162004 100 285 11.0 16.0 0.00 0.00 0.00 19 1008.0
20210729161504 100 284 10.0 18.0 0.00 0.00 0.00 19 1008.1
20210729161004 99 286 12.0 18.0 0.00 0.00 0.00 19 1008.2
20210729160505 99 293 11.0 17.0 0.00 0.00 0.00 19 1008.2
20210729160004 98 285 12.0 22.0 0.00 0.00 0.00 19 1008.2
20210729155505 98 294 12.0 20.0 0.00 0.00 0.00 19 1008.2
20210729155004 98 292 10.0 18.0 0.00 0.00 0.00 19 1008.3
20210729154504 97 287 9.0 17.0 0.00 0.00 0.00 20 1008.2
20210729154004 96 278 9.0 16.0 0.00 0.00 0.00 21 1008.3
20210729153504 96 290 10.0 20.0 0.00 0.00 0.00 21 1008.3
20210729153004 96 295 9.0 18.0 0.00 0.00 0.00 20 1008.3
20210729152504 96 296 12.0 18.0 0.00 0.00 0.00 20 1008.3
20210729152004 95 282 11.0 18.0 0.00 0.00 0.00 21 1008.3
20210729151504 95 282 10.0 17.0 0.00 0.00 0.00 21 1008.4
20210729151004 95 289 7.0 20.0 0.00 0.00 0.00 22 1008.3
20210729150504 95 284 10.0 18.0 0.00 0.00 0.00 22 1008.3
20210729150004 94 291 12.0 18.0 0.00 0.00 0.00 23 1008.3
20210729145505 94 286 10.0 17.0 0.00 0.00 0.00 23 1008.3
20210729145004 93 290 10.0 18.0 0.00 0.00 0.00 24 1008.3
20210729144504 93 292 7.0 16.0 0.00 0.00 0.00 24 1008.3
20210729144004 93 287 10.0 16.0 0.00 0.00 0.00 24 1008.3
20210729143504 93 271 9.0 18.0 0.00 0.00 0.00 25 1008.3
20210729143004 92 276 8.0 13.0 0.00 0.00 0.00 25 1008.3
20210729142504 92 283 9.0 17.0 0.00 0.00 0.00 24 1008.3
20210729142004 92 267 9.0 18.0 0.00 0.00 0.00 25 1008.2
20210729141504 92 275 10.0 18.0 0.00 0.00 0.00 25 1008.1
20210729141004 92 283 12.0 18.0 0.00 0.00 0.00 25 1008.0
20210729140504 92 289 10.0 17.0 0.00 0.00 0.00 25 1008.0
20210729140004 92 289 12.0 20.0 0.00 0.00 0.00 25 1008.0
20210729135504 92 289 12.0 24.0 0.00 0.00 0.00 25 1008.0
20210729135004 92 281 12.0 20.0 0.00 0.00 0.00 25 1008.0
20210729134504 92 283 10.0 20.0 0.00 0.00 0.00 25 1008.0
20210729134004 91 282 8.0 18.0 0.00 0.00 0.00 25 1007.9
20210729133504 91 284 9.0 17.0 0.00 0.00 0.00 25 1007.9
20210729133004 91 289 8.0 22.0 0.00 0.00 0.00 26 1007.9
20210729132503 90 295 7.0 20.0 0.00 0.00 0.00 27 1007.9
20210729132004 90 297 6.0 14.0 0.00 0.00 0.00 27 1007.9
20210729131503 90 272 9.0 16.0 0.00 0.00 0.00 27 1008.0
20210729131004 90 297 7.0 13.0 0.00 0.00 0.00 27 1007.9
20210729130504 90 292 9.0 15.0 0.00 0.00 0.00 26 1007.9
20210729130004 90 301 8.0 15.0 0.00 0.00 0.00 27 1007.8
20210729125505 90 307 9.0 16.0 0.00 0.00 0.00 27 1007.8
20210729125003 91 294 13.0 20.0 0.00 0.00 0.00 27 1007.8
20210729124503 91 291 14.0 21.0 0.00 0.00 0.00 27 1007.8
20210729124004 90 287 13.0 20.0 0.00 0.00 0.00 27 1007.7
20210729123503 91 282 13.0 23.0 0.00 0.00 0.00 27 1007.7
20210729123004 91 292 13.0 25.0 0.00 0.00 0.00 27 1007.7
20210729122504 91 286 12.0 21.0 0.00 0.00 0.00 26 1007.5
20210729122004 91 275 11.0 16.0 0.00 0.00 0.00 26 1007.6
20210729121504 91 279 10.0 20.0 0.00 0.00 0.00 25 1007.5
20210729121004 91 276 9.0 20.0 0.00 0.00 0.00 25 1007.5
20210729120504 91 280 10.0 15.0 0.00 0.00 0.00 26 1007.5
20210729120004 91 280 10.0 18.0 0.00 0.00 0.00 26 1007.3
20210729115504 91 271 11.0 20.0 0.00 0.00 0.00 26 1007.3
20210729115004 91 286 12.0 20.0 0.00 0.00 0.00 26 1007.3
20210729114503 91 278 14.0 23.0 0.00 0.00 0.00 26 1007.2
20210729114004 91 289 13.0 21.0 0.00 0.00 0.00 26 1007.1
20210729113504 91 292 12.0 20.0 0.00 0.00 0.00 26 1007.2
20210729113004 91 282 7.0 14.0 0.00 0.00 0.00 26 1007.2
20210729112504 91 274 9.0 18.0 0.00 0.00 0.00 26 1007.2
20210729112004 91 280 11.0 18.0 0.00 0.00 0.00 25 1007.2
20210729111504 92 294 13.0 18.0 0.00 0.00 0.00 25 1007.2
20210729111004 92 284 10.0 17.0 0.00 0.00 0.00 24 1007.2
20210729110504 92 292 11.0 17.0 0.00 0.00 0.00 24 1007.2
20210729110004 92 293 10.0 16.0 0.00 0.00 0.00 23 1007.2
20210729105504 92 289 10.0 17.0 0.00 0.00 0.00 23 1007.2
20210729105004 92 291 12.0 20.0 0.00 0.00 0.00 24 1007.2
20210729104504 92 287 12.0 18.0 0.00 0.00 0.00 24 1007.2
20210729104004 92 284 9.0 18.0 0.00 0.00 0.00 24 1007.1
20210729103504 92 278 13.0 20.0 0.00 0.00 0.00 25 1007.2
20210729103004 91 290 12.0 20.0 0.00 0.00 0.00 25 1007.2
20210729102504 91 282 11.0 20.0 0.00 0.00 0.00 25 1007.2
20210729102004 91 286 13.0 23.0 0.00 0.00 0.00 25 1007.2
20210729101504 91 281 13.0 24.0 0.00 0.00 0.00 25 1007.3
20210729101004 91 284 16.0 24.0 0.00 0.00 0.00 25 1007.2
20210729100504 91 286 14.0 25.0 0.00 0.00 0.00 25 1007.3
20210729100004 91 287 16.0 25.0 0.00 0.00 0.00 25 1007.3